GFSSW_sfc_dewp_159.txt.gz
Dewpoint
53 53 52 52 52 52 53 54 54 55 55 56 56 56 56 56 55 50 46 41 48 57 55 39 44 42 25 28 26 24 24 23 23 23 22 20 18 17 17 15 15 16 17 21 51
53 52 52 52 52 52 52 53 54 54 55 56 56 56 57 56 50 46 52 55 54 55 41 38 32 29 24 22 24 22 21 21 23 22 21 19 18 19 18 17 18 20 21 18 20
53 52 52 52 52 52 52 53 53 54 54 55 55 56 57 55 46 36 57 56 55 51 41 36 30 25 24 23 22 20 17 17 16 16 16 15 14 18 17 16 18 20 23 19 17
53 52 52 52 52 52 52 52 53 54 54 54 55 57 57 50 34 34 58 58 56 50 43 37 27 25 23 21 20 18 21 20 15 14 12 11 13 13 12 14 18 18 20 27 27
54 52 52 52 52 52 52 53 53 53 54 54 55 56 51 43 40 48 58 56 50 45 41 27 24 23 20 21 21 19 18 16 14 13 13 14 13 14 14 15 16 17 19 25 26
54 54 52 51 52 52 53 53 53 53 53 54 56 56 49 32 38 46 50 44 44 38 33 24 22 21 21 21 21 20 20 19 19 18 16 14 14 15 16 18 17 16 18 22 23
54 53 53 52 52 52 53 54 54 53 54 55 56 48 37 31 30 42 40 30 31 28 27 25 25 23 22 21 20 19 16 16 17 18 18 18 15 13 13 14 13 17 19 19 21
54 52 52 51 51 52 53 54 54 53 54 55 55 46 34 27 29 24 19 21 27 28 28 26 26 25 23 22 19 15 15 13 14 15 13 15 13 14 14 13 12 11 12 20 22
53 52 51 51 51 52 53 53 53 53 54 55 48 44 34 38 27 26 23 22 21 22 23 21 19 22 23 20 16 14 10 10 10 11 11 12 12 14 15 13 12 12 12 15 19
53 51 51 51 52 52 52 52 53 51 51 48 43 39 35 25 24 24 25 23 21 24 24 23 23 19 19 20 17 16 13 12 11 11 11 9 8 12 16 18 16 18 20 18 18
53 51 50 51 52 52 49 40 30 41 42 26 26 27 22 22 20 20 24 21 21 21 19 21 20 20 19 19 18 16 15 15 17 18 17 13 9 11 13 16 16 17 19 20 23
52 51 51 51 51 51 49 36 26 25 25 25 25 25 25 21 19 19 21 19 20 18 20 19 18 19 21 21 20 18 16 13 15 20 20 26 18 18 20 18 19 20 19 19 18
51 50 50 51 51 49 39 21 21 30 27 26 23 20 20 21 21 21 19 17 17 18 17 19 22 25 23 22 20 17 14 15 17 28 29 30 24 22 25 24 19 19 20 20 18
51 50 49 50 45 40 30 21 23 34 29 26 22 21 18 19 18 15 16 19 19 16 19 21 24 23 23 22 21 17 18 19 25 28 25 34 24 25 27 32 27 19 21 17 18
50 49 49 49 43 39 21 21 29 38 22 15 16 22 11 13 11 11 12 22 20 21 22 23 25 25 24 23 23 19 20 20 27 29 29 28 28 24 26 24 25 19 20 19 18
50 48 49 46 45 40 20 25 35 32 20 14 10 10 14 13 13 16 20 24 25 31 31 30 30 27 26 25 23 23 21 20 26 26 25 25 29 23 25 21 22 22 23 25 21
48 47 46 41 39 26 28 33 30 19 12 11 12 17 16 14 14 16 18 25 29 28 31 29 26 28 28 26 27 25 24 25 22 22 19 21 25 28 25 23 26 26 28 29 29
46 47 48 41 40 33 36 33 23 12 11 16 19 18 17 19 19 20 24 26 32 34 31 27 25 25 29 28 25 24 28 28 23 23 19 20 18 19 26 32 30 32 35 36 35
46 43 45 35 28 36 34 25 17 16 19 21 22 19 22 24 28 28 27 29 34 34 31 30 27 31 29 28 28 25 21 21 26 24 20 19 20 22 28 34 34 38 40 41 41
42 42 40 36 37 38 34 26 21 21 23 24 24 23 23 25 28 28 28 29 34 36 36 34 30 28 27 30 30 27 27 22 25 16 16 16 17 18 28 33 35 36 39 41 42
44 40 35 34 36 36 31 24 23 20 26 27 26 25 27 28 30 28 28 29 37 36 37 35 36 28 30 27 27 27 26 27 30 30 26 22 22 24 29 34 36 37 40 41 44
41 34 34 34 28 30 25 25 29 24 29 28 30 29 30 32 32 31 29 33 35 37 36 36 36 30 27 30 30 30 35 36 32 31 34 33 27 29 29 33 35 39 41 38 42
38 39 37 37 26 29 30 26 26 25 28 29 29 30 34 35 33 36 33 34 36 37 37 39 35 28 27 29 36 33 31 36 36 36 30 29 26 28 28 32 38 39 39 40 41
40 32 35 34 32 33 31 29 25 25 25 26 27 31 33 33 32 33 32 34 37 38 41 42 34 32 26 27 30 30 31 32 34 31 30 29 28 29 35 35 33 37 39 39 40
43 37 37 29 29 32 33 31 24 22 25 27 27 30 32 28 33 32 34 35 36 39 39 39 33 34 34 33 34 33 32 33 34 35 32 32 34 34 33 35 35 37 39 37 39
41 40 38 34 34 32 31 25 23 24 26 26 28 29 35 33 35 34 35 35 36 36 37 39 33 35 33 34 33 29 30 35 35 36 35 34 29 31 32 32 35 35 36 36 37
44 43 40 37 33 28 27 28 25 25 29 27 31 36 36 37 39 38 38 37 37 37 37 36 32 32 26 29 28 28 31 31 32 32 32 29 29 33 32 34 35 35 35 35 36

GFSSW_sfc_dewp_162.txt.gz
Dewpoint
53 53 53 52 52 53 53 53 53 54 55 55 56 56 56 56 55 51 46 48 49 57 56 40 42 44 41 27 28 25 21 25 25 24 25 24 21 20 20 19 19 21 21 22 41
53 53 53 52 52 52 52 53 53 54 55 55 55 55 56 56 51 46 52 55 53 55 39 37 32 29 30 22 24 22 21 21 23 22 19 19 16 15 15 14 18 20 21 22 25
53 53 52 52 51 51 51 52 53 53 54 55 55 55 57 56 45 40 60 57 56 52 42 39 36 29 24 24 22 21 20 21 19 19 17 15 15 14 12 12 16 18 19 22 28
54 53 52 52 51 51 51 51 53 53 54 54 55 56 57 51 31 33 60 58 57 50 44 39 33 26 24 22 21 19 20 21 20 19 15 14 14 13 13 13 15 17 20 22 26
55 53 52 52 52 52 52 53 53 53 53 54 55 56 51 42 40 39 60 57 53 48 41 38 24 23 24 21 21 20 20 20 19 18 17 16 15 15 14 17 20 18 19 19 21
55 54 52 52 52 52 53 53 53 53 53 54 55 57 49 26 36 47 52 50 47 44 38 28 23 23 21 21 20 21 19 17 17 16 18 17 16 16 17 17 15 16 18 19 20
55 54 53 51 52 52 53 54 54 53 54 54 56 51 40 21 31 45 48 42 42 39 30 27 26 24 25 22 22 21 17 16 15 15 15 15 13 14 18 17 15 15 13 16 21
54 53 53 51 52 52 53 53 53 53 54 55 55 47 34 33 32 37 43 37 25 28 28 25 25 25 24 24 21 18 16 14 14 15 15 17 12 14 15 16 16 15 14 14 16
54 53 52 51 52 52 53 53 53 53 54 54 49 44 38 43 28 27 23 24 23 21 24 24 24 22 22 21 20 18 12 12 13 13 13 13 11 14 15 15 16 15 15 14 14
53 52 52 52 52 53 52 52 53 51 52 49 44 37 35 26 24 26 25 24 23 22 23 24 23 21 20 20 15 17 16 15 14 15 16 17 17 18 17 14 15 17 17 16 17
53 52 51 51 52 51 49 38 25 27 36 25 26 37 29 26 25 22 25 23 23 23 20 20 18 17 19 21 19 17 17 16 18 17 15 15 17 25 27 21 16 18 18 19 21
53 52 51 51 51 51 47 29 20 23 24 26 26 26 26 26 21 23 24 20 23 17 20 18 16 18 21 23 24 23 20 19 18 16 23 26 28 29 28 26 22 23 22 21 21
52 51 51 51 51 45 38 28 23 28 25 27 28 24 21 22 21 21 23 21 18 17 17 16 17 21 22 23 23 22 21 19 17 22 28 29 25 24 24 29 29 28 28 24 21
51 51 50 50 41 41 33 21 28 33 30 29 20 18 12 13 19 15 15 19 15 14 17 18 19 20 22 24 24 22 23 22 20 22 20 30 21 21 24 24 25 25 28 26 22
51 50 49 49 39 38 32 23 32 37 14 17 12 15 19 12 14 15 21 22 18 18 21 21 28 30 28 27 26 25 26 24 24 25 27 29 26 22 24 23 24 26 27 27 23
50 49 49 45 42 42 39 30 35 28 15 13 13 19 19 20 21 21 24 28 31 30 30 31 33 31 28 28 28 28 26 24 24 25 22 24 27 22 23 25 25 24 24 27 29
49 49 48 43 31 36 34 35 26 13 15 16 19 23 22 25 26 29 28 28 31 31 31 31 28 28 29 27 26 27 26 24 22 20 20 22 24 24 26 27 27 26 31 38 37
48 48 46 42 40 38 35 21 15 14 19 21 23 23 24 26 28 29 28 27 37 35 32 30 26 29 31 29 26 26 27 28 22 22 21 23 22 21 28 30 29 35 39 39 37
47 40 42 43 36 35 26 19 15 21 22 24 24 23 23 25 29 30 28 30 36 36 31 31 29 32 32 30 28 27 25 25 25 23 19 18 20 22 22 23 36 37 37 37 38
41 41 40 34 34 35 27 26 22 22 24 26 26 25 23 26 29 29 29 31 36 37 36 35 30 30 30 31 29 26 28 25 26 17 17 17 18 17 20 31 35 35 35 39 39
41 36 33 30 34 30 25 23 24 22 26 30 28 26 28 29 31 29 30 32 37 36 38 37 35 30 32 27 25 26 27 29 33 31 25 22 22 23 23 30 34 34 36 39 41
39 29 34 31 27 28 24 27 33 27 31 31 30 29 30 33 33 32 31 34 35 36 35 37 36 30 28 30 31 30 35 35 30 29 33 30 24 29 29 31 36 38 39 40 42
37 37 37 34 26 28 30 30 30 27 31 30 29 30 32 33 33 35 33 35 36 38 37 39 35 28 28 27 35 32 32 33 34 35 28 26 23 27 31 33 37 36 36 39 39
38 33 35 32 31 31 30 31 29 31 25 26 24 26 30 31 34 32 32 35 38 38 41 42 35 32 28 29 32 31 31 32 33 29 28 28 28 30 34 35 31 32 35 37 37
40 35 36 30 33 33 31 31 27 25 27 25 26 28 28 25 31 31 34 35 37 38 38 38 32 33 34 34 34 33 32 32 33 33 30 32 31 33 32 32 32 34 36 35 35
38 39 39 37 35 31 31 25 28 27 25 24 26 28 31 30 31 33 35 35 34 35 36 39 33 35 33 34 33 32 31 30 30 32 32 30 29 29 30 31 34 34 34 33 33
41 40 39 35 32 30 29 32 31 29 29 29 34 35 35 36 38 38 38 38 37 35 36 37 33 31 29 30 30 28 29 29 30 30 31 27 27 32 32 32 32 33 33 33 34

GFSSW_sfc_dewp_165.txt.gz
Dewpoint
54 53 53 53 53 53 53 53 53 54 54 55 55 55 55 56 55 50 44 44 48 56 55 41 40 41 40 30 28 27 22 25 28 25 25 23 20 22 19 17 16 20 22 24 61
53 53 53 52 52 52 52 52 53 53 54 54 55 55 56 57 51 45 49 57 58 54 34 35 31 32 33 22 24 23 21 21 23 24 21 19 18 17 16 14 15 17 20 27 30
53 53 52 52 52 52 52 52 53 53 54 54 54 55 56 56 45 41 57 58 57 51 42 39 37 29 24 24 23 22 20 21 21 21 22 19 19 19 15 14 14 15 17 22 27
54 53 53 52 52 52 52 53 53 54 54 54 54 55 57 51 29 35 60 58 56 49 43 37 27 25 25 22 22 20 20 21 20 19 18 17 16 15 15 15 16 17 18 22 25
55 54 53 52 52 52 53 53 54 54 54 54 54 56 49 34 35 43 59 56 52 47 40 35 23 22 23 20 20 24 20 19 19 18 18 18 18 17 16 18 19 18 19 18 19
55 54 53 52 52 53 53 53 53 54 54 54 54 56 45 17 31 42 48 50 47 43 36 28 24 24 21 22 20 20 20 20 17 16 16 16 16 16 16 18 18 18 17 16 17
55 54 53 52 52 53 53 54 54 54 54 54 55 52 39 9 29 45 46 40 41 40 35 28 27 25 24 20 22 21 19 18 16 14 15 17 14 14 16 17 18 17 16 17 16
55 54 53 52 53 53 53 54 54 53 54 54 56 48 30 30 36 42 47 42 37 39 35 26 24 25 23 23 21 19 17 15 14 15 15 15 12 15 16 15 16 17 17 17 18
54 53 53 52 52 53 53 53 53 53 54 55 48 44 33 44 30 29 41 31 23 22 24 24 24 23 22 20 18 19 15 14 16 16 15 13 13 15 17 17 17 17 18 17 16
54 53 53 53 52 53 53 52 53 52 52 51 44 35 32 28 27 26 24 24 23 24 21 23 23 20 19 19 16 17 17 17 17 18 18 16 16 17 18 25 25 23 17 18 21
54 53 52 52 52 52 48 26 21 21 26 25 25 34 31 28 28 22 24 25 24 21 19 20 17 16 17 18 20 20 19 18 19 19 18 17 15 17 23 28 27 24 23 23 23
54 53 52 52 52 52 43 19 21 20 22 25 26 26 27 27 25 25 23 20 21 17 20 18 16 17 19 20 21 24 23 22 23 22 18 19 20 22 27 27 27 25 24 24 25
53 52 52 51 52 43 39 27 23 28 23 27 28 22 13 23 23 22 18 19 19 18 17 16 16 20 20 19 20 22 22 23 22 23 23 26 23 23 22 25 25 28 28 30 29
53 52 51 51 38 39 31 28 25 34 24 18 12 16 21 18 19 17 22 18 17 15 15 15 18 26 29 26 24 24 27 26 25 24 23 25 20 20 21 24 25 25 26 26 26
53 51 51 50 38 35 28 36 32 31 9 14 13 19 23 25 22 29 27 25 24 22 22 21 30 30 29 29 28 26 28 27 27 26 26 28 24 21 23 21 23 25 26 27 28
52 51 50 44 41 40 40 34 33 22 13 17 18 22 24 26 27 30 30 31 33 33 32 30 33 31 30 29 28 27 27 27 26 24 22 23 26 19 21 23 25 26 26 32 33
51 49 48 43 30 38 36 34 21 11 18 17 20 23 23 26 27 29 28 29 34 30 30 32 30 29 31 29 29 27 26 22 22 20 20 21 25 22 24 25 25 26 27 36 36
49 48 45 43 42 40 26 17 11 16 20 21 23 24 24 25 27 30 29 28 36 35 31 29 25 31 32 30 28 28 27 22 19 21 21 24 22 21 26 27 27 29 35 38 37
47 41 38 38 36 33 26 19 14 18 21 23 24 24 24 26 29 30 29 30 36 35 29 30 29 31 30 31 29 26 24 25 24 24 26 24 22 22 22 23 26 36 37 35 37
40 40 34 33 35 31 26 25 20 23 23 26 25 26 23 26 29 29 29 32 36 37 35 33 29 29 31 32 31 28 28 22 25 23 20 20 19 18 19 22 34 35 35 38 39
39 34 33 35 34 30 25 23 25 26 29 27 26 25 26 27 31 29 29 31 36 36 37 34 35 29 31 30 27 27 29 31 35 33 26 22 22 26 28 33 34 35 36 36 40
38 26 35 33 29 29 26 28 33 30 30 29 29 28 27 30 31 31 31 31 36 36 33 36 35 30 29 30 31 30 30 34 28 27 32 27 23 26 26 32 36 36 35 36 40
37 37 39 36 24 27 30 31 32 30 28 27 27 28 28 29 26 33 33 35 35 36 36 39 35 29 29 27 35 35 35 37 36 33 28 25 23 26 28 30 35 33 32 31 36
38 33 36 33 32 30 29 29 30 31 26 25 22 26 27 26 31 29 31 34 37 37 40 41 35 33 28 28 31 31 34 33 34 29 27 28 28 30 32 34 33 31 31 35 36
39 35 35 33 35 35 31 31 27 27 27 26 24 26 28 20 28 31 33 34 34 37 37 38 33 33 34 33 33 33 32 32 33 34 29 31 29 29 29 30 31 31 33 34 33
39 39 38 36 36 32 32 26 29 30 26 26 27 30 34 27 30 32 33 33 32 35 36 38 33 36 33 34 32 32 32 32 28 29 31 29 27 28 32 33 32 32 32 31 32
40 39 38 35 33 31 31 33 33 34 30 29 29 33 34 35 36 36 36 36 36 36 35 37 33 31 27 31 29 23 27 29 31 30 30 26 28 35 31 29 30 31 32 32 33

GFSSW_sfc_dewp_168.txt.gz
Dewpoint
54 53 52 53 52 53 52 53 53 53 54 54 55 55 55 56 55 50 42 46 49 56 54 40 35 43 39 26 27 28 24 26 30 26 28 24 19 20 21 17 16 16 20 21 49
53 53 52 52 52 53 53 53 53 53 54 54 55 55 56 56 48 42 49 57 56 55 34 33 32 32 30 22 24 24 22 22 25 24 22 21 21 20 19 19 15 16 18 21 30
54 53 52 52 52 52 53 53 53 53 54 54 54 55 56 55 39 37 57 56 56 47 41 39 36 26 24 24 23 22 20 22 21 22 21 21 17 19 18 15 15 15 17 19 25
54 53 53 53 53 53 53 53 54 54 54 54 54 55 57 49 28 35 60 57 56 46 40 32 24 24 22 21 22 24 21 20 19 19 18 17 17 17 16 16 17 18 19 20 21
54 54 53 53 53 53 53 54 54 54 54 54 54 56 48 29 34 44 57 54 49 45 38 30 22 21 26 20 20 23 20 20 20 19 17 17 17 16 17 18 19 19 20 20 19
54 54 53 53 53 53 54 54 54 53 53 54 55 56 40 28 32 50 48 51 46 44 38 28 28 24 21 20 17 20 20 20 19 18 17 15 14 16 15 17 17 20 19 18 19
54 55 53 53 53 53 54 54 54 54 53 54 55 53 28 23 30 47 44 38 40 38 33 29 26 23 22 20 22 21 19 19 19 15 15 16 15 14 16 17 17 18 18 19 20
54 54 53 53 53 53 54 54 54 53 53 54 55 47 22 28 36 38 46 38 40 39 37 33 24 23 23 23 21 19 17 15 16 16 17 16 15 16 18 16 17 19 19 22 22
54 54 54 53 53 53 53 53 54 54 53 54 47 43 34 44 27 28 40 34 24 24 28 24 23 22 21 20 18 18 16 17 17 18 18 14 18 20 19 18 19 20 23 24 24
54 54 53 53 53 53 53 52 55 53 52 52 44 30 27 27 29 27 31 37 23 22 20 22 21 19 17 17 13 15 17 18 19 20 21 20 20 21 20 19 20 24 27 26 24
54 54 53 53 53 53 43 28 22 21 24 24 25 29 28 27 28 23 24 24 23 20 18 20 17 15 16 17 18 19 19 19 21 23 21 22 21 21 21 21 26 28 27 26 25
54 54 53 53 53 52 37 19 21 22 24 24 27 26 27 27 24 23 22 20 21 16 19 17 16 17 19 19 20 20 21 22 24 25 23 22 23 24 25 26 26 27 26 26 27
54 53 52 52 52 42 37 25 26 28 23 26 26 17 17 19 23 22 24 22 19 17 17 16 17 18 19 20 25 25 23 25 25 27 26 24 24 24 25 26 26 26 27 28 28
54 53 52 51 35 38 27 32 32 32 18 13 12 16 24 25 19 29 29 23 18 15 15 16 18 29 29 29 29 26 28 27 27 27 24 26 22 23 24 23 25 25 26 26 27
53 53 51 51 34 28 28 38 34 25 8 14 16 22 25 26 27 29 31 29 26 25 23 22 28 29 28 27 29 26 28 27 27 26 25 26 23 21 22 21 22 24 26 27 28
53 52 50 43 39 37 39 36 30 21 10 15 20 22 23 26 27 31 30 35 37 34 33 31 32 31 31 29 28 28 27 26 26 24 21 21 25 21 21 21 23 26 27 28 31
52 51 47 43 34 37 37 31 20 6 18 15 20 22 24 25 26 30 29 35 33 28 28 31 31 30 32 29 30 29 26 20 19 20 20 23 24 23 24 25 25 26 25 28 35
51 48 44 42 42 40 23 15 8 15 16 21 22 24 24 25 27 30 29 28 36 34 30 28 25 30 32 29 28 29 26 20 19 20 20 24 22 23 26 27 26 28 29 33 38
48 41 37 34 34 29 24 19 15 17 20 22 24 24 23 25 28 30 29 29 36 34 26 28 29 31 30 30 30 26 25 26 25 24 23 22 24 26 26 25 30 33 36 36 38
40 39 34 36 33 31 26 25 19 22 23 25 24 25 23 24 27 29 28 31 36 36 34 32 30 30 32 32 31 29 29 23 24 19 20 21 21 21 26 32 34 35 35 36 37
38 31 32 37 34 31 25 24 25 27 30 26 25 25 26 26 29 29 29 31 35 36 37 34 34 29 31 30 28 27 27 29 33 31 24 20 19 26 31 33 34 35 35 34 36
38 27 34 33 27 29 26 29 34 29 30 28 29 28 26 27 27 30 29 30 36 36 33 35 35 30 28 30 31 30 29 30 29 27 31 29 24 27 27 31 33 35 35 34 35
37 36 40 36 28 28 29 30 31 30 29 25 23 28 27 26 24 31 32 34 35 35 33 37 34 29 28 28 35 34 35 35 35 33 29 26 24 27 30 33 33 33 33 32 32
38 34 37 36 32 31 30 29 29 30 28 27 24 26 28 27 30 28 29 32 36 36 39 39 35 33 28 29 31 31 32 33 34 30 29 29 29 31 29 29 30 32 33 32 31
39 35 35 32 34 34 31 31 29 27 29 27 25 27 28 21 28 29 32 33 34 36 35 38 34 34 35 34 34 33 33 33 33 32 30 30 28 28 28 31 31 31 31 31 31
38 37 37 35 35 31 32 27 31 31 30 27 26 28 28 27 28 30 32 31 31 33 34 38 33 35 33 35 34 33 32 31 30 30 30 29 27 28 34 32 31 30 30 29 30
41 40 38 35 33 31 32 31 35 35 34 30 29 30 28 30 35 35 36 36 35 33 36 37 34 32 28 31 29 24 26 29 30 31 32 27 28 35 32 31 31 31 31 31 31